Location: Malvern Link
(52.1333°N, 2.3000°W)
Time: 15:50:53
(UTC+00:00)

SO-50 - Pass Details

Date: 07 July 2022
Orbit: 585 x 698 km, 64.6° (Epoch: 11 August)

Event Time Altitude Azimuth Distance (km) Brightness Sun altitude
Exits shadow 23:48:56 - 233° (SW) 2,457 ? -15.2°
Reaches altitude 10° 23:49:54 10° 234° (SW) 2,081 ? -15.2°
Maximum altitude 23:54:37 66° 317° (NW) 743 ? -15.2°
Drops below altitude 10° 23:59:31 10° 40° (NE) 2,150 ? -15.3°
Sets 00:01:54 0° 44° (NE) 3,079 ? -15.3°
